Weather History for KP59 - October, 2012

Change the Weather History Date:

Monday, October 8, 2012

  Actual Average Record
Temperature  
Mean Temperature 46 °F -  
Max Temperature 54 °F 53 °F 82 °F (2011)
Min Temperature 39 °F 39 °F 28 °F (1996)
Degree Days  
Heating Degree Days 18    
Moisture  
Dew Point 31 °F    
Average Humidity 59    
Maximum Humidity 93    
Minimum Humidity 38    
Precipitation  
Precipitation 0.28 in - - ()
Sea Level Pressure  
Sea Level Pressure 29.76 in    
Wind  
Wind Speed 9 mph (WSW)    
Max Wind Speed 14 mph    
Max Gust Speed 25 mph    
Averages and records for this station are not official NWS values.
T = Trace of Precipitation, MM = Missing Value Source: NWS Daily Summary

Daily Weather History Graph

Daily Weather History Graph

Search for Another Location

Airport or City:

Trip Planner

Search our weather history database for the weather conditions in past years. The results will help you decide how hot, cold, wet, or windy it might be!

Date:

Astronomy

Oct. 08, 2012 Rise Set
Actual Time 8:00 AM EDT 7:16 PM EDT
Civil Twilight 7:30 AM EDT 7:46 PM EDT
Nautical Twilight 6:54 AM EDT 8:22 PM EDT
Astronomical Twilight 6:18 AM EDT 8:57 PM EDT
Moon 12:13 AM EDT (10/8) 3:30 PM EDT (10/8)
Length of Visible Light 12h 16m
Length of Day
11h 15m
Waning Gibbous, 46% of the Moon is Illuminated
Oct 8
Waning Gibbous
Oct 15
New
Oct 21
First Quarter
Oct 29
Full
Nov 6
Last Quarter

Hourly Weather History & Observations

Time (EDT) Temp. Windchill Dew Point Humidity Pressure Visibility Wind Dir Wind Speed Gust Speed Precip Events Conditions
12:51 AM 42.1 °F 37.1 °F 23.0 °F 47% 29.88 in - West 8.1 mph - N/A   Unknown
1:51 AM 41.0 °F 35.2 °F 23.0 °F 49% 29.88 in - WSW 9.2 mph - N/A   Unknown
2:51 AM 39.0 °F 33.4 °F 24.1 °F 55% 29.88 in - WSW 8.1 mph - N/A   Unknown
3:51 AM 39.9 °F 35.1 °F 24.1 °F 53% 29.86 in - Variable 6.9 mph - N/A   Unknown
4:51 AM 39.0 °F 33.4 °F 24.1 °F 55% 29.85 in - WSW 8.1 mph - N/A   Unknown
5:51 AM 39.0 °F 32.8 °F 24.1 °F 55% 29.85 in - WSW 9.2 mph 17.3 mph N/A   Unknown
6:51 AM 39.0 °F 31.8 °F 21.9 °F 50% 29.84 in - WSW 11.5 mph 19.6 mph N/A   Unknown
7:51 AM 39.9 °F 32.9 °F 21.9 °F 49% 29.83 in - WSW 11.5 mph 21.9 mph N/A   Unknown
8:51 AM 39.9 °F 33.9 °F 23.0 °F 51% 29.83 in - WSW 9.2 mph 18.4 mph N/A   Unknown
9:51 AM 42.1 °F 36.6 °F 24.1 °F 49% 29.82 in - West 9.2 mph 16.1 mph N/A   Unknown
10:51 AM 46.0 °F 41.4 °F 28.0 °F 50% 29.81 in - WSW 9.2 mph 20.7 mph N/A   Unknown
11:51 AM 46.9 °F - 30.0 °F 52% 29.79 in - SW 12.7 mph 17.3 mph N/A   Unknown
12:51 PM 50.0 °F - 32.0 °F 50% 29.76 in - SW 13.8 mph 20.7 mph N/A   Unknown
1:51 PM 52.0 °F - 32.0 °F 47% 29.74 in - WSW 9.2 mph 18.4 mph N/A   Unknown
2:51 PM 53.1 °F - 28.0 °F 38% 29.72 in - WSW 10.4 mph 18.4 mph N/A   Unknown
3:51 PM 54.0 °F - 30.0 °F 40% 29.70 in - SW 6.9 mph - N/A   Unknown
4:51 PM 54.0 °F - 34.0 °F 47% 29.69 in - Variable 3.5 mph - N/A   Unknown
5:51 PM 51.1 °F - 37.0 °F 59% 29.69 in - West 8.1 mph 18.4 mph N/A   Unknown
6:51 PM 48.0 °F - 43.0 °F 83% 29.68 in - SSW 9.2 mph 18.4 mph 0.04 in   Unknown
7:51 PM 48.9 °F - 43.0 °F 80% 29.65 in - Variable 4.6 mph - 0.02 in   Unknown
8:51 PM 48.9 °F - 42.1 °F 77% 29.66 in - West 8.1 mph 25.3 mph 0.02 in   Unknown
9:51 PM 46.9 °F - 44.1 °F 90% 29.65 in - WSW 9.2 mph 17.3 mph 0.09 in   Unknown
10:51 PM 48.0 °F - 45.0 °F 89% 29.62 in - Variable 5.8 mph 17.3 mph 0.08 in   Unknown
11:51 PM 48.0 °F - 46.0 °F 93% 29.60 in - Calm Calm - 0.03 in   Unknown